Home   Weather   Vadsø   Past weeks

Flag for Norway Past Weather in Vadsø, Norway — Yesterday and Last 2 Weeks

Now
19 °F

Light mixture of precip. Passing clouds.


Feels Like: 5 °F
Forecast: 9 / 21 °F
Wind: 15 mph from Northwest

Location: Vadso

Current Time: Dec 5, 2016 at 7:53:10 pm

Latest Report: Dec 5, 2016 at 6:50 pm


Visibility: N/A

Pressure: 29.83 "Hg

Humidity: 79%

Dew Point: 14 °F

Location of VadsøLocation

Past Weather in Vadsø — Graph

°F

Vadsø Temperature Yesterday

Maximum temperature yesterday: 23 °F (at 11:50 pm)
Minimum temperature yesterday: 7 °F (at 1:50 pm)
Average temperature yesterday: 17 °F

High & Low Weather Summary for the Past Weeks

 TemperatureHumidityPressure
High36 °F (Nov 21, 12:50 pm)100% (Nov 23, 4:20 am)29.98 "Hg (Nov 23, 4:20 am)
Low7 °F (Dec 4, 1:50 pm)63% (Dec 5, 12:50 am)29.12 "Hg (Nov 30, 6:50 am)
Average26 °F84%29.66 "Hg
* Reported Nov 20 5:50 pm — Dec 5 5:50 pm, Vadsø, Weather by CustomWeather, © 2016

Note: Actual official high and low records may vary slightly from our data, if they occured in-between our weather recording intervals... More about our weather records

Advertising

Vadsø Weather History for the Previous 24 Hours

Scroll right to see more
 ConditionsComfort  
Time TempWeatherWind HumidityBarometerVisibility
5:50 pm
Mon, Dec 5
19 °FLight mixture of precip. Passing clouds.3 mph100%29.80 "HgN/A
4:50 pm19 °FLight mixture of precip. Scattered clouds.12 mph100%29.80 "HgN/A
3:50 pm18 °FScattered clouds.12 mph100%29.77 "HgN/A
2:50 pm18 °FScattered clouds.15 mph100%29.77 "HgN/A
1:50 pm18 °FPassing clouds.9 mph68%29.74 "HgN/A
12:50 pm18 °FPassing clouds.9 mph79%29.71 "HgN/A
11:50 am12 °FPassing clouds.9 mph85%29.68 "HgN/A
10:50 am9 °FPassing clouds.7 mph85%29.68 "HgN/A
9:50 am12 °FScattered clouds.12 mph85%29.65 "HgN/A
8:50 am12 °FScattered clouds.12 mph85%29.62 "HgN/A
7:50 am12 °FScattered clouds.12 mph85%29.59 "HgN/A
6:50 am9 °FPassing clouds.12 mph92%29.59 "HgN/A
5:50 am9 °FPassing clouds.12 mph85%29.56 "HgN/A
4:50 am10 °FPassing clouds.12 mph79%29.56 "HgN/A
12:50 am23 °FClear.15 mph63%29.53 "Hg10 mi
11:50 pm
Sun, Dec 4
23 °FPassing clouds.15 mph68%29.50 "HgN/A
10:50 pm21 °FScattered clouds.15 mph74%29.53 "HgN/A
9:50 pm21 °FPassing clouds.17 mph74%29.53 "HgN/A
8:50 pm21 °FPassing clouds.15 mph74%29.53 "HgN/A
Weather by CustomWeather, © 2016

See weather overviewHow to use our weather pages